Voltar ao catálogo

STARLINK-36567

AtivoComunicaçõesSSO
NORAD 67552·PAYLOAD·🇺🇸 United States

Lançado Jan 22, 2026 de Vandenberg Space Force Base

Loading…

Próximas Passagens (próximas 24 horas)

TLE

AtualizadoSource: CelesTrak SupGP

Época: Sep 15, 2026, 02:33 UTC

1 67552C 26014W   26258.10673611  .00086540  00000+0  26855-2 0  2584
2 67552  97.2848 143.5944 0002297  96.8993 310.2258 15.33404197    18

Acompanhe STARLINK-36567 em tempo real com AllMySat

Download on the App Store